Miscellaneous Local Product
Issued by NWS North Platte, NE

Home | Current Version | Previous Version | Text Only | Print | Product List | Glossary On
Versions: 1 2 3 4 5 6 7 8 9 10 11 12 13 14 15 16 17 18 19 20 21 22 23 24 25 26 27 28 29 30 31 32 33 34 35 36 37 38 39 40 41 42 43 44 45 46 47 48 49 50
000
AXUS43 KLBF 050710
MISLBF


WESTERN AND NORTH CENTRAL NEBRASKA HOURLY WEATHER ROUNDUP
NATIONAL WEATHER SERVICE NORTH PLATTE NE
100 AM CST THU MAR 05 2015

***STATIONS NOT REPORTING VARIABLES SUCH AS SKY/WEATHER OR
PRESSURE ARE PROVIDED BY THE NEBRASKA DEPARTMENT OF
ROADS...RAWS...AND APRS NETWORKS...AND ARE NOT UNDER
NATIONAL WEATHER SERVICE QUALITY CONTROL***

...OBSERVATIONS IN AND NEAR THE EASTERN PANHANDLE OF NEBRASKA...

CITY           SKY/WX    TMP DP  RH WIND       PRES   REMARKS
PINE RIDGE     PTCLDY    -5 -10  79 NW3       30.25F
CHADRON        PTCLDY    -2  -8  76 SW3       30.26F
ALLIANCE       CLEAR      2  -4  76 S3        30.23S
SIDNEY         CLEAR     10   4  76 W10       30.24F WCI  -4
WHITECLAY        N/A     -6 -12  74 SE6         N/A  WCI -19
CRESCENT LAKE    N/A      9   2  72 CALM        N/A
LISCO            N/A     11   2  67 CALM        N/A
BIG SPRINGS      N/A      9   4  79 SW5         N/A  WCI   1
LEWELLEN         N/A      5  -4  65 CALM        N/A
$$

...OBSERVATIONS IN NORTH CENTRAL NEBRASKA...

CITY           SKY/WX    TMP DP  RH WIND       PRES   REMARKS
VALENTINE      CLEAR      0  -4  83 SW8       30.33F WCI -14
THEDFORD       CLEAR      5   0  81 SW7       30.33S WCI  -7
AINSWORTH      CLEAR      1  -3  81 SW5       30.33F WCI  -8
O`NEILL        CLEAR      2  -4  76 CALM      30.39S
ORD            CLEAR      0  -7  72 SW3       30.39S
BROKEN BOW     CLEAR     -1  -7  75 CALM      30.36S
BROWNLEE         N/A      1  -3  84 S3          N/A
SPRINGVIEW       N/A     -5  -9  81 CALM        N/A
BREWSTER         N/A      5   0  79 CALM        N/A
ROSE             N/A     12   9  90 CALM        N/A
NEWPORT          N/A      5   3  91 CALM        N/A
SARGENT          N/A      3  -2  81 CALM        N/A
COMSTOCK         N/A      6  -3  67 CALM        N/A
CHAMBERS         N/A     -1 -20  40 CALM        N/A
EWING            N/A     -1  -7  76 CALM        N/A
$$

...OBSERVATIONS IN SOUTHWEST NEBRASKA AND FAR NORTHEAST COLORADO...

CITY           SKY/WX    TMP DP  RH WIND       PRES   REMARKS
WRAY           FAIR      15   9  77 W8        30.29F WCI   3
IMPERIAL         N/A     13   6  74 SW3       30.30F
OGALLALA       CLEAR      4  -1  81 CALM      30.30S
NORTH PLATTE   CLEAR      6  -2  69 CALM      30.34S
MCCOOK         PTCLDY    14   3  61 NE3       30.35F
LEXINGTON      CLEAR      9   1  71 SE3       30.37F
PAXTON           N/A      7   0  73 CALM        N/A
BRADY            N/A      7  -2  65 CALM        N/A
GOTHENBURG       N/A     10   0  63 CALM        N/A
CALLAWAY         N/A      3  -3  75 CALM        N/A
$$

...NORTH PLATTE AREA...

CITY           SKY/WX    TMP DP  RH WIND       PRES   REMARKS
AIRPORT        CLEAR      6  -2  69 CALM      30.34S
DOWNTOWN         N/A      8   0  70 CALM        N/A
$$

...SOME WEATHER OBSERVATIONS FROM AROUND THE REGION...

CITY           SKY/WX    TMP DP  RH WIND       PRES   REMARKS
DENVER         CLEAR      5  -1  76 S13       30.19F WCI -12
LARAMIE        PTCLDY     5  -4  66 S7        30.10R WCI  -7
CHEYENNE       CLEAR      7  -2  66 SW3       30.12F
SCOTTSBLUFF    CLEAR      7   1  76 E3        30.23F
RAPID CITY     CLEAR      6   0  76 S9        30.21F WCI  -8
PIERRE         PTCLDY    -5 -11  75 SE6       30.38S WCI -18
WINNER         FAIR       3  -9  57 S6        30.37F WCI  -8
SIOUX FALLS    CLEAR     -6 -11  79 NW3       30.44S
OMAHA          CLEAR      6  -2  69 N5        30.49S WCI  -3
GRAND ISLAND   CLEAR      5  -3  69 CALM      30.43S
KANSAS CITY    PTCLDY    17   3  54 NE12      30.42S WCI   4
WICHITA        PTCLDY    18   9  68 NW5       30.42S WCI  11
HAYS           CLEAR     14   0  52 W6        30.38S WCI   5
LIBERAL        CLEAR     10   3  72 W5        30.39S WCI   2
GOODLAND       CLEAR     15   9  76 W9        30.29F WCI   3
$$



USA.gov is the U.S. government's official web portal to all federal, state and local government web resources and services.